CST-100 STARLINER (44900 NORAD) Tracking and Keplerian Element Data

This shows tracking and keplerian element data for the satellite.

Feedback or suggestion? Click here.




ElementValue
Catalog44900
NameCST-100 STARLINER
Epoch Orbit32
Epoch Day356.47189787
Epoch Year2019
RAAN147.4168
Inclination51.5894
Eccentricity0.0011355
Argument of Perigee297.9562
Mean Anonmoly102.965
Mean Motion16.07602464
Decay Rate-3.642E-05
L11 44900U 19094A 19356.47189787 -.00003642 11515-4 00000+0 0 9997
L22 44900 51.5894 147.4168 0011355 297.9562 102.9650 16.07602464 321

Live tracking and technical data element details for CST-100 STARLINER (NORAD 44900). CST-100 STARLINER can be tracked NOW for your location showing map with azimuth and elevation plus other details from your city location.

Track the satellite on the map from your city or location and see movement details for azimuth, elevation, latitude, longitude, range, height, and movement on the map or in text.







IsCatalogInMostPopularTable: catalog: 44900, numindb: 79
Update: records affected: 1



GetName: 44900 CST-100 STARLINER

Hit Count: updated at: Sat, 18 Jan 2020 17:56:33 GMT